EW6308 Weather Reports


Display with metric or nautical units.
time (UTC)temp
F
wind
direction
speed
MPH
gust
MPH
rain 1hr
in
rain 24hr
in
rain mn
in
humidity
%
barometer
mb
20260509161648 85 251 1.0 3.0 0.00 0.00 0.00 60 1013.0
20260509161144 84 264 1.0 2.0 0.00 0.00 0.00 62 1013.0
20260509160640 83 349 2.0 3.0 0.00 0.00 0.00 63 1013.1
20260509160135 83 287 3.0 4.0 0.00 0.00 0.00 63 1013.2
20260509155632 83 280 4.0 4.0 0.00 0.00 0.00 64 1013.3
20260509155128 82 97 1.0 2.0 0.00 0.00 0.00 66 1013.4
20260509154624 81 13 3.0 4.0 0.00 0.00 0.00 68 1013.2
20260509154121 82 322 2.0 3.0 0.00 0.00 0.00 69 1013.3
20260509153618 81 329 2.0 2.0 0.00 0.00 0.00 71 1013.2
20260509153115 81 191 0.0 2.0 0.00 0.00 0.00 71 1013.1
20260509152611 80 318 3.0 4.0 0.00 0.00 0.00 73 1013.3
20260509152108 80 17 6.0 9.0 0.00 0.00 0.00 73 1013.2
20260509151604 79 347 1.0 3.0 0.00 0.00 0.00 75 1013.2
20260509151102 79 318 3.0 8.0 0.00 0.00 0.00 74 1013.0
20260509150559 78 345 2.0 6.0 0.00 0.00 0.00 77 1013.2
20260509150058 78 307 3.0 6.0 0.00 0.00 0.00 76 1013.0
20260509145553 78 351 3.0 7.0 0.00 0.00 0.00 76 1013.1
20260509145049 79 338 5.0 9.0 0.00 0.00 0.00 75 1013.0
20260509144546 79 343 6.0 8.0 0.00 0.00 0.00 75 1013.1
20260509144043 78 340 4.0 4.0 0.00 0.00 0.00 75 1012.9
20260509143540 79 343 4.0 4.0 0.00 0.00 0.00 76 1013.0
20260509143038 78 284 2.0 3.0 0.00 0.00 0.00 76 1012.7
20260509142533 78 225 2.0 6.0 0.00 0.00 0.00 76 1012.9
20260509142029 77 342 1.0 4.0 0.00 0.00 0.00 77 1012.9
20260509141525 77 283 2.0 3.0 0.00 0.00 0.00 78 1012.8
20260509141022 77 268 1.0 3.0 0.00 0.00 0.00 80 1013.1
20260509140519 76 350 1.0 2.0 0.00 0.00 0.00 81 1012.9
20260509140017 76 337 4.0 8.0 0.00 0.00 0.00 83 1013.0
20260509135513 76 357 8.0 10.0 0.00 0.00 0.00 81 1013.1
20260509135011 77 339 4.0 7.0 0.00 0.00 0.00 78 1013.0
20260509134508 77 195 3.0 7.0 0.00 0.00 0.00 79 1013.0
20260509134006 77 329 1.0 2.0 0.00 0.00 0.00 81 1012.7
20260509133502 75 321 2.0 3.0 0.00 0.00 0.00 84 1012.8
20260509133000 75 207 2.0 3.0 0.00 0.00 0.00 87 1012.6
20260509132458 74 358 4.0 4.0 0.00 0.00 0.00 89 1012.4
20260509131955 73 251 1.0 3.0 0.00 0.00 0.00 92 1012.5
20260509131452 73 271 1.0 2.0 0.00 0.00 0.00 94 1012.2
20260509130948 72 178 3.0 4.0 0.00 0.00 0.00 95 1012.0
20260509130444 72 334 4.0 6.0 0.00 0.00 0.00 96 1012.4
20260509125941 71 255 1.0 3.0 0.00 0.00 0.00 96 1012.1
20260509125438 71 337 4.0 4.0 0.00 0.00 0.00 96 1012.3
20260509124934 71 292 1.0 6.0 0.00 0.00 0.00 96 1012.2
20260509124431 71 264 1.0 2.0 0.00 0.00 0.00 96 1012.1
20260509123928 71 246 0.0 2.0 0.00 0.00 0.00 96 1011.9
20260509123426 71 281 2.0 2.0 0.00 0.00 0.00 96 1011.8
20260509122921 71 214 2.0 6.0 0.00 0.00 0.00 96 1011.0
20260509122419 71 208 7.0 10.0 0.00 0.00 0.00 96 1010.7
20260509121915 71 188 3.0 8.0 0.00 0.00 0.00 96 1010.6
20260509121413 71 165 1.0 7.0 0.00 0.00 0.00 96 1010.3
20260509120911 70 167 4.0 8.0 0.00 0.00 0.00 96 1010.3
20260509120408 70 211 9.0 10.0 0.00 0.00 0.00 96 1010.6
20260509115906 70 175 9.0 11.0 0.00 0.00 0.00 96 1010.6
20260509115403 70 219 2.0 4.0 0.00 0.00 0.00 96 1010.7
20260509114901 70 197 4.0 7.0 0.00 0.00 0.00 96 1010.6
20260509114359 70 191 6.0 8.0 0.00 0.00 0.00 96 1010.7
20260509113858 70 169 6.0 11.0 0.00 0.00 0.00 96 1010.9
20260509113355 70 189 7.0 13.0 0.00 0.00 0.00 96 1010.9
20260509112851 70 205 7.0 11.0 0.00 0.00 0.00 96 1011.2
20260509112348 70 196 8.0 10.0 0.00 0.00 0.00 96 1011.2
20260509111846 70 179 6.0 11.0 0.00 0.00 0.00 96 1011.1
20260509111342 70 182 8.0 11.0 0.00 0.00 0.00 95 1011.2
20260509110840 71 223 6.0 10.0 0.00 0.00 0.00 95 1011.3
20260509110336 71 186 9.0 10.0 0.00 0.00 0.00 95 1011.6
20260509105835 71 192 5.0 8.0 0.00 0.00 0.00 95 1011.9
20260509105332 71 247 4.0 7.0 0.00 0.00 0.00 95 1012.0
20260509104829 71 206 6.0 9.0 0.00 0.00 0.00 95 1012.0
20260509104325 71 187 5.0 7.0 0.00 0.00 0.00 95 1012.0
20260509103823 71 227 4.0 6.0 0.00 0.00 0.00 95 1012.2
20260509103320 71 231 3.0 7.0 0.00 0.00 0.00 95 1012.3
20260509102820 71 211 1.0 3.0 0.00 0.00 0.00 95 1012.3
20260509102316 71 223 2.0 6.0 0.00 0.00 0.00 95 1012.4
20260509101812 71 185 3.0 4.0 0.00 0.00 0.00 95 1012.3
20260509101308 71 213 1.0 2.0 0.00 0.00 0.00 95 1012.4
20260509100806 71 211 2.0 3.0 0.00 0.00 0.00 95 1012.5
20260509100303 70 219 0.0 1.0 0.00 0.00 0.00 95 1012.5
20260509095759 70 217 2.0 3.0 0.00 0.00 0.00 95 1012.6
20260509095257 70 196 1.0 1.0 0.00 0.00 0.00 95 1012.6
20260509094754 70 235 1.0 1.0 0.00 0.00 0.00 95 1012.8
20260509094250 70 224 1.0 1.0 0.00 0.00 0.00 95 1012.8
20260509093748 70 245 0.0 0.0 0.00 0.00 0.00 95 1012.8
20260509093245 70 226 0.0 1.0 0.00 0.00 0.00 95 1012.8
20260509092744 70 212 0.0 0.0 0.00 0.00 0.00 95 1012.8
20260509092241 70 219 0.0 1.0 0.00 0.00 0.00 95 1012.8
20260509091739 70 235 0.0 0.0 0.00 0.00 0.00 95 1012.8
20260509091235 70 242 0.0 1.0 0.00 0.00 0.00 95 1012.9
20260509090733 70 224 1.0 2.0 0.00 0.00 0.00 95 1012.9
20260509090229 70 213 0.0 1.0 0.00 0.00 0.00 95 1012.9
20260509085728 70 175 0.0 0.0 0.00 0.00 0.00 95 1013.0
20260509085225 70 300 0.0 0.0 0.00 0.00 0.00 95 1013.0
20260509084721 70 297 0.0 1.0 0.00 0.00 0.00 95 1013.1
20260509084218 70 196 1.0 1.0 0.00 0.00 0.00 95 1013.1
20260509083716 70 314 1.0 2.0 0.00 0.00 0.00 95 1013.2
20260509083212 70 275 0.0 1.0 0.00 0.00 0.00 95 1013.4
20260509082709 70 340 2.0 3.0 0.00 0.00 0.00 95 1013.6
20260509082206 70 346 3.0 3.0 0.00 0.00 0.00 95 1013.6
20260509081702 70 1 2.0 4.0 0.00 0.00 0.00 95 1013.6
20260509081159 70 3 2.0 4.0 0.00 0.00 0.00 95 1013.6
20260509080658 70 336 2.0 2.0 0.00 0.00 0.00 95 1013.6
20260509080155 70 272 0.0 1.0 0.00 0.00 0.00 95 1013.4
20260509075653 70 257 1.0 2.0 0.00 0.00 0.00 95 1013.5
20260509075151 70 290 1.0 1.0 0.00 0.00 0.00 95 1013.2
20260509074647 70 240 0.0 1.0 0.00 0.00 0.00 95 1012.9
20260509074144 70 90 3.0 3.0 0.00 0.00 0.00 95 1013.1
20260509073641 70 219 0.0 0.0 0.00 0.00 0.00 95 1013.0
20260509073137 70 173 0.0 0.0 0.00 0.00 0.00 95 1013.1
20260509072634 70 246 0.0 0.0 0.00 0.00 0.00 95 1013.1
20260509072131 70 254 0.0 0.0 0.00 0.00 0.00 95 1013.1
20260509071627 70 230 0.0 0.0 0.00 0.00 0.00 95 1013.0
20260509071125 70 180 0.0 1.0 0.00 0.00 0.00 95 1012.9
20260509070622 70 211 1.0 4.0 0.00 0.00 0.00 95 1013.1
20260509070118 70 198 2.0 2.0 0.00 0.00 0.00 95 1013.1
20260509065614 70 234 0.0 0.0 0.00 0.00 0.00 95 1013.3
20260509065110 70 233 0.0 0.0 0.00 0.00 0.00 95 1013.0
20260509064607 70 286 0.0 1.0 0.00 0.00 0.00 95 1013.1
20260509064106 70 243 0.0 1.0 0.00 0.00 0.00 95 1013.3
20260509063602 70 250 0.0 0.0 0.00 0.00 0.00 95 1013.4
20260509063059 70 355 2.0 3.0 0.00 0.00 0.00 95 1013.3
20260509062555 70 335 1.0 2.0 0.00 0.00 0.00 95 1012.9
20260509062053 70 353 2.0 2.0 0.00 0.00 0.00 95 1012.8
20260509061550 69 206 0.0 0.0 0.00 0.00 0.00 95 1012.8
20260509061047 69 206 0.0 0.0 0.00 0.00 0.00 95 1012.6
20260509060545 69 206 0.0 0.0 0.00 0.00 0.00 94 1012.4
20260509060040 69 205 0.0 0.0 0.00 0.00 0.00 94 1012.3
20260509055536 69 203 0.0 0.0 0.00 0.00 0.00 94 1012.3
20260509055032 69 216 0.0 0.0 0.00 0.00 0.00 94 1012.4
20260509054528 69 217 0.0 0.0 0.00 0.00 0.00 94 1012.3
20260509054027 70 217 0.0 0.0 0.00 0.00 0.00 94 1012.2
20260509053525 70 210 0.0 0.0 0.00 0.00 0.00 94 1012.3
20260509053022 70 215 0.0 0.0 0.00 0.00 0.00 94 1012.2
20260509052519 70 216 0.0 0.0 0.00 0.00 0.00 93 1012.3
20260509052017 70 220 0.0 0.0 0.00 0.00 0.00 94 1012.6
20260509051515 70 221 0.0 0.0 0.00 0.00 0.00 94 1012.6
20260509051012 70 219 0.0 0.0 0.00 0.00 0.00 94 1012.6
20260509050508 70 275 0.0 0.0 0.00 0.00 0.00 94 1012.8
20260509050005 70 245 0.0 0.0 0.00 0.00 0.00 94 1012.8
20260509045502 70 232 0.0 0.0 0.00 0.00 0.00 93 1012.9
20260509044959 70 232 0.0 0.0 0.00 0.00 0.00 93 1012.8
20260509044457 70 232 0.0 0.0 0.00 0.00 0.00 93 1012.7
20260509043954 70 232 0.0 0.0 0.00 0.00 0.00 93 1012.8
20260509043449 70 266 0.0 0.0 0.00 0.00 0.00 93 1012.9
20260509042945 70 267 0.0 0.0 0.00 0.00 0.00 93 1012.8
20260509042442 70 267 0.0 0.0 0.00 0.00 0.00 93 1012.8
20260509041938 70 267 0.0 0.0 0.00 0.00 0.00 93 1012.7
20260509041435 70 267 0.0 0.0 0.00 0.00 0.00 93 1012.6
20260509040934 70 267 0.0 0.0 0.00 0.00 0.00 93 1012.7
20260509040431 70 284 1.0 1.0 0.00 0.00 0.00 93 1012.7
20260509035928 70 274 1.0 1.0 0.00 0.00 0.00 93 1012.5
20260509035425 70 270 0.0 0.0 0.00 0.00 0.00 93 1012.3
20260509034921 70 270 0.0 0.0 0.00 0.00 0.00 92 1012.2
20260509034419 70 276 0.0 0.0 0.00 0.00 0.00 92 1012.0
20260509033916 70 254 0.0 0.0 0.00 0.00 0.00 92 1012.0
20260509033413 71 227 0.0 0.0 0.00 0.00 0.00 92 1011.8
20260509032909 71 227 0.0 0.0 0.00 0.00 0.00 91 1011.8
20260509032407 71 228 0.0 0.0 0.00 0.00 0.00 91 1011.8
20260509031905 71 229 0.0 0.0 0.00 0.00 0.00 91 1011.6
20260509031402 71 228 0.0 0.0 0.00 0.00 0.00 91 1011.6
20260509030859 71 223 0.0 0.0 0.00 0.00 0.00 90 1011.4
20260509030357 71 223 1.0 1.0 0.00 0.00 0.00 90 1011.6
20260509025854 71 236 0.0 0.0 0.00 0.00 0.00 90 1011.4
20260509025349 72 261 0.0 0.0 0.00 0.00 0.00 89 1011.3
20260509024845 72 262 0.0 0.0 0.00 0.00 0.00 88 1011.4
20260509024341 72 263 0.0 1.0 0.00 0.00 0.00 88 1011.3
20260509023838 73 246 0.0 0.0 0.00 0.00 0.00 87 1011.1
20260509023336 73 178 0.0 1.0 0.00 0.00 0.00 87 1011.2
20260509022832 73 205 1.0 2.0 0.00 0.00 0.00 87 1010.9
20260509022330 73 194 2.0 2.0 0.00 0.00 0.00 86 1010.7
20260509021826 73 205 1.0 2.0 0.00 0.00 0.00 86 1011.0
20260509021323 73 197 2.0 3.0 0.00 0.00 0.00 86 1011.0
20260509020821 73 185 1.0 2.0 0.00 0.00 0.00 86 1010.8
20260509020319 73 184 1.0 2.0 0.00 0.00 0.00 85 1010.7
20260509015816 73 176 1.0 2.0 0.00 0.00 0.00 85 1010.6
20260509015314 73 199 1.0 2.0 0.00 0.00 0.00 85 1010.5
20260509014811 74 205 1.0 1.0 0.00 0.00 0.00 85 1010.8
20260509014308 74 203 0.0 1.0 0.00 0.00 0.00 85 1010.7
20260509013804 74 204 0.0 0.0 0.00 0.00 0.00 85 1010.8
20260509013300 74 204 0.0 1.0 0.00 0.00 0.00 84 1010.8
20260509012756 74 206 0.0 0.0 0.00 0.00 0.00 84 1010.9
20260509012253 74 206 0.0 0.0 0.00 0.00 0.00 84 1010.9
20260509011751 74 218 0.0 0.0 0.00 0.00 0.00 84 1010.9
20260509011248 74 221 0.0 1.0 0.00 0.00 0.00 84 1010.9
20260509010746 74 227 0.0 1.0 0.00 0.00 0.00 83 1010.8
20260509010243 74 223 0.0 1.0 0.00 0.00 0.00 83 1010.9
20260509005741 74 209 2.0 3.0 0.00 0.00 0.00 83 1010.9
20260509005238 75 199 3.0 4.0 0.00 0.00 0.00 83 1011.0
20260509004737 75 192 2.0 2.0 0.00 0.00 0.00 82 1011.0
20260509004235 75 219 1.0 2.0 0.00 0.00 0.00 82 1010.8
20260509003733 75 220 0.0 3.0 0.00 0.00 0.00 82 1011.1
20260509003230 75 209 2.0 3.0 0.00 0.00 0.00 82 1011.0
20260509002727 75 182 2.0 3.0 0.00 0.00 0.00 82 1010.8
20260509002225 75 206 1.0 3.0 0.00 0.00 0.00 81 1011.0
20260509001722 75 167 1.0 4.0 0.00 0.00 0.00 81 1010.8
20260509001218 75 170 2.0 4.0 0.00 0.00 0.00 81 1010.8
20260509000716 75 200 2.0 6.0 0.00 0.00 0.00 81 1010.6
20260509000213 75 201 2.0 6.0 0.00 0.00 0.00 80 1010.9
20260508235710 75 209 2.0 3.0 0.00 0.00 0.00 80 1011.0
20260508235206 75 229 2.0 7.0 0.00 0.00 0.00 80 1010.9
20260508234704 75 144 4.0 7.0 0.00 0.00 0.00 80 1011.0
20260508234200 75 227 2.0 4.0 0.00 0.00 0.00 80 1011.0
20260508233700 75 205 3.0 4.0 0.00 0.00 0.00 80 1010.8
20260508233157 75 234 1.0 4.0 0.00 0.00 0.00 80 1010.6
20260508232654 76 214 4.0 7.0 0.00 0.00 0.00 79 1010.9
20260508232150 76 168 1.0 3.0 0.00 0.00 0.00 79 1010.8
20260508231649 76 177 4.0 6.0 0.00 0.00 0.00 78 1010.8
20260508231145 75 233 0.0 4.0 0.00 0.00 0.00 79 1010.9
20260508230642 75 146 3.0 8.0 0.00 0.00 0.00 79 1011.0
20260508230138 76 267 2.0 4.0 0.00 0.00 0.00 79 1011.0
20260508225636 76 153 2.0 3.0 0.00 0.00 0.00 78 1011.1
20260508225132 76 81 2.0 7.0 0.00 0.00 0.00 77 1011.1
20260508224630 76 120 2.0 2.0 0.00 0.00 0.00 77 1011.1
20260508224128 76 70 2.0 4.0 0.00 0.00 0.00 77 1011.2
20260508223625 76 183 1.0 4.0 0.00 0.00 0.00 77 1011.2
20260508223122 76 201 2.0 3.0 0.00 0.00 0.00 77 1011.0
20260508222620 76 229 1.0 6.0 0.00 0.00 0.00 77 1011.1
20260508222117 77 205 3.0 4.0 0.00 0.00 0.00 76 1011.3
20260508221613 76 221 2.0 6.0 0.00 0.00 0.00 77 1011.2
20260508221108 76 241 0.0 3.0 0.00 0.00 0.00 77 1011.3
20260508220605 76 80 3.0 6.0 0.00 0.00 0.00 77 1011.5
20260508215559 75 169 2.0 4.0 0.00 0.00 0.00 77 1011.6
20260508215055 75 234 2.0 6.0 0.00 0.00 0.00 78 1011.9
20260508214553 76 174 2.0 4.0 0.00 0.00 0.00 77 1011.8
20260508214049 76 179 1.0 6.0 0.00 0.00 0.00 77 1011.8
20260508213546 75 192 2.0 4.0 0.00 0.00 0.00 77 1011.8
20260508213042 74 215 0.0 2.0 0.00 0.00 0.00 79 1012.0
20260508212539 74 60 2.0 3.0 0.00 0.00 0.00 78 1012.1
20260508212035 74 184 2.0 6.0 0.00 0.00 0.00 77 1012.3
20260508211531 73 226 1.0 3.0 0.00 0.00 0.00 79 1012.4
20260508211027 73 181 2.0 3.0 0.00 0.00 0.00 79 1012.5
20260508210524 73 206 0.0 2.0 0.00 0.00 0.00 79 1012.5
20260508210022 73 244 0.0 1.0 0.00 0.00 0.00 79 1012.7
20260508205518 73 264 0.0 0.0 0.00 0.00 0.00 79 1012.8
20260508205014 73 83 2.0 4.0 0.00 0.00 0.00 79 1012.9
20260508204512 73 209 2.0 3.0 0.00 0.00 0.00 79 1012.8
20260508204007 74 210 3.0 4.0 0.00 0.00 0.00 77 1012.8
20260508203503 75 281 0.0 3.0 0.00 0.00 0.00 76 1012.8
20260508202959 75 228 3.0 3.0 0.00 0.00 0.00 75 1012.9
20260508202456 74 222 0.0 2.0 0.00 0.00 0.00 77 1013.0
20260508201953 74 216 4.0 4.0 0.00 0.00 0.00 76 1013.0
20260508201450 73 122 1.0 2.0 0.00 0.00 0.00 77 1013.0
20260508200947 74 102 1.0 2.0 0.00 0.00 0.00 76 1013.1
20260508200444 73 204 2.0 3.0 0.00 0.00 0.00 77 1013.1
20260508195938 73 178 1.0 3.0 0.00 0.00 0.00 76 1013.1
20260508195436 73 155 1.0 3.0 0.00 0.00 0.00 76 1013.2
20260508194932 72 201 1.0 4.0 0.00 0.00 0.00 78 1013.1
20260508194429 72 209 4.0 4.0 0.00 0.00 0.00 77 1013.3
20260508193926 72 209 0.0 3.0 0.00 0.00 0.00 78 1013.5
20260508193424 73 83 6.0 7.0 0.00 0.00 0.00 74 1013.4
20260508192919 72 246 0.0 1.0 0.00 0.00 0.00 77 1013.4
20260508192417 71 230 0.0 3.0 0.00 0.00 0.00 79 1013.4
20260508191914 71 117 4.0 6.0 0.00 0.00 0.00 79 1013.7
20260508191411 71 105 2.0 3.0 0.00 0.00 0.00 77 1013.7
20260508190908 71 205 1.0 4.0 0.00 0.00 0.00 78 1013.7
20260508190405 70 68 2.0 6.0 0.00 0.00 0.00 80 1013.9
20260508185901 71 84 2.0 4.0 0.00 0.00 0.00 78 1013.8
20260508185359 71 217 1.0 3.0 0.00 0.00 0.00 78 1013.8
20260508184855 70 137 0.0 1.0 0.00 0.00 0.00 81 1013.9
20260508184353 70 219 0.0 1.0 0.00 0.00 0.00 81 1014.1
20260508183849 69 245 0.0 1.0 0.00 0.00 0.00 81 1014.2
20260508183346 69 105 2.0 2.0 0.00 0.00 0.00 81 1014.2
20260508182842 69 179 0.0 1.0 0.00 0.00 0.00 83 1014.3
20260508182339 69 167 1.0 1.0 0.00 0.00 0.00 82 1014.3
20260508181834 68 137 0.0 2.0 0.00 0.00 0.00 83 1014.6
20260508181331 68 71 1.0 3.0 0.00 0.00 0.00 82 1014.5
20260508180828 68 68 1.0 2.0 0.00 0.00 0.00 83 1014.6
20260508180325 68 68 2.0 3.0 0.00 0.00 0.00 82 1014.9
20260508175821 68 36 1.0 2.0 0.00 0.00 0.00 82 1014.9
20260508175318 68 93 0.0 2.0 0.00 0.00 0.00 81 1014.9
20260508174816 68 39 1.0 1.0 0.00 0.00 0.00 81 1015.0
20260508174313 68 237 0.0 0.0 0.00 0.00 0.00 81 1015.1
20260508173809 68 85 1.0 1.0 0.00 0.00 0.00 81 1015.1
20260508173307 68 101 0.0 1.0 0.00 0.00 0.00 80 1015.4
20260508172802 68 264 0.0 0.0 0.00 0.00 0.00 81 1015.3
20260508172300 67 88 2.0 2.0 0.00 0.00 0.00 81 1015.6
20260508171755 67 193 1.0 2.0 0.00 0.00 0.00 81 1015.5
20260508171252 67 188 3.0 3.0 0.00 0.00 0.00 81 1015.7
20260508170749 68 233 3.0 3.0 0.00 0.00 0.00 80 1015.7
20260508170247 68 215 1.0 3.0 0.00 0.00 0.00 80 1015.8
20260508165744 67 220 0.0 1.0 0.00 0.00 0.00 81 1015.7
20260508165241 67 267 0.0 2.0 0.00 0.00 0.00 81 1015.7
20260508164737 67 13 2.0 4.0 0.00 0.00 0.00 80 1015.7
20260508164234 68 283 0.0 1.0 0.00 0.00 0.00 80 1015.9
20260508163732 67 221 0.0 1.0 0.00 0.00 0.00 81 1015.9
20260508163229 67 86 1.0 1.0 0.00 0.00 0.00 80 1015.8
20260508162725 68 191 1.0 2.0 0.00 0.00 0.00 79 1015.9
20260508162222 67 224 1.0 3.0 0.00 0.00 0.00 80 1015.8